Helicity
140 147 89 50 43 5 26 33 43 84 119 20 208 332 180 201 128 188 78 127 79 2 -166 -151 -70 110 172 188 198 151 62 17 33 -9 -33 -3 9 -5 -14 -22 3 5 -1 -7
206 89 50 60 46 36 34 54 94 138 87 22 197 310 257 207 118 83 65 53 -90 -37 -144 -181 -3 133 119 188 199 168 47 11 49 -2 -44 26 -3 -9 -22 -21 -6 11 2 2
109 76 66 50 55 76 77 73 120 155 134 19 94 123 111 147 54 56 124 142 5 -50 -50 -136 73 199 193 255 257 175 103 48 46 -15 -36 58 -31 -15 -24 -47 -22 0 4 5
73 100 106 135 105 54 96 62 149 162 111 111 43 61 130 180 111 62 71 11 48 -76 -89 -57 160 238 225 151 257 232 191 111 26 -6 -20 -56 -54 -51 -29 -13 -28 3 4 9
105 126 134 98 106 139 136 78 146 83 31 13 64 104 67 236 125 102 98 10 86 -64 -25 52 206 280 301 258 285 293 247 139 21 4 -26 -35 -63 -61 -30 -24 -30 -6 -11 9
38 21 119 135 63 80 88 185 81 47 41 86 3 86 69 157 256 172 103 -27 43 103 29 73 244 334 294 270 319 315 264 142 40 -12 -44 -30 -44 -34 -40 -10 -20 -19 -14 13
69 39 36 51 122 80 55 181 192 100 137 74 36 138 70 25 174 377 384 134 34 190 85 73 154 342 328 367 353 302 260 170 78 6 -39 -60 -46 -55 -28 -2 4 -7 -21 10
119 167 102 153 114 105 63 122 165 128 80 54 3 66 64 29 82 317 448 263 155 262 91 28 160 292 429 395 407 356 273 212 135 61 -18 -34 -60 -80 -51 -14 9 21 27 44
172 165 141 105 163 103 159 170 73 98 103 131 141 154 131 91 75 160 213 224 235 228 120 62 154 270 394 441 434 420 339 257 205 126 27 -24 -36 -68 -94 -22 -18 26 10 11
97 143 90 167 204 202 115 80 167 148 85 107 135 122 137 -126 91 111 131 188 69 206 156 186 223 226 323 436 462 446 435 316 260 197 158 27 -24 -28 -65 -58 -40 -28 -32 -6
108 79 109 82 205 444 313 259 126 117 124 81 92 108 -96 -170 -65 -18 146 185 173 203 172 267 258 225 334 331 382 406 379 361 277 220 222 130 23 -22 -33 -66 -55 -41 -51 -25
117 57 4 62 40 119 137 262 358 218 210 228 184 205 116 -24 -48 54 80 77 173 185 146 205 239 372 436 312 262 307 331 304 285 291 257 175 145 48 -22 -62 -69 -67 -43 19
142 47 58 20 50 96 189 190 305 271 261 165 181 257 42 33 37 20 89 119 161 183 178 214 228 289 208 142 384 268 266 303 302 334 296 237 137 112 -2 -25 -56 -47 -53 59
131 78 44 21 -13 80 147 269 253 244 345 364 212 201 90 89 59 35 38 311 145 205 251 268 147 1 17 57 19 137 195 281 297 308 314 274 224 148 102 70 16 -23 -25 -43
31 29 31 22 -3 -13 3 172 239 250 291 333 352 307 117 -14 87 82 20 90 89 325 148 256 111 53 -162 -34 0 26 118 177 258 273 260 192 241 249 201 156 116 54 15 -17
95 74 49 36 54 16 -38 -44 56 167 197 243 359 308 144 -15 -47 54 86 -18 78 183 498 352 278 103 -306 -157 -31 -11 84 58 233 242 234 249 179 270 235 212 181 164 74 40
79 75 79 50 81 41 10 -53 -112 -69 -80 46 216 252 23 81 43 53 90 110 14 116 272 413 388 303 -6 -47 44 49 69 79 219 185 153 209 261 182 219 230 196 153 124 109
98 120 127 33 54 9 47 65 84 4 -117 -23 24 138 -94 11 94 -31 60 110 120 68 166 244 251 341 302 13 31 87 88 144 83 246 163 167 223 252 217 235 195 164 147 131
89 74 103 85 63 27 13 -3 46 69 94 82 100 184 17 33 148 40 83 39 115 138 54 163 174 183 376 173 359 4 7 -25 49 203 297 190 205 275 339 233 205 188 168 146
133 128 97 103 123 35 40 92 105 100 30 150 169 185 68 -183 -57 -33 111 95 43 165 151 59 149 126 45 127 293 209 95 37 27 94 218 180 163 132 265 267 249 207 190 144
90 120 109 53 50 78 163 123 79 13 32 49 51 92 68 -180 -120 -34 -26 21 -19 25 125 86 -17 7 -19 -2 100 167 179 178 130 25 55 162 57 45 143 250 277 261 215 177
29 58 56 83 83 100 36 25 36 35 -52 -29 -35 -37 -2 -24 -25 -30 -116 -147 -102 -49 26 1 -137 -56 -31 -23 8 93 139 206 220 305 81 83 6 -30 56 193 257 261 259 218
40 78 74 37 33 67 -4 -51 -1 1 -33 -37 -30 -66 -92 -76 -26 25 -23 -145 -224 -146 -88 -108 -84 -163 -26 -52 -84 -16 43 46 59 123 214 104 -11 -34 110 205 222 325 291 259
57 104 93 88 47 41 -2 37 14 -3 -4 24 22 -7 -27 -33 -98 -44 -55 -61 -181 -212 -114 -136 -98 -116 -51 -38 -57 -80 -30 33 98 -108 14 -39 -9 49 163 286 318 376 359 317
99 112 99 118 37 61 54 -29 -18 4 7 7 25 31 64 103 -14 22 7 -5 -64 -130 -49 -93 -53 -94 -29 -107 -119 -132 -33 2 29 58 37 29 23 91 139 223 324 351 295 297
144 119 123 84 108 111 99 78 -68 -48 3 -9 -25 7 71 122 96 92 64 28 37 17 -30 -14 -18 -4 35 64 58 -127 -123 -36 0 24 32 59 52 90 119 149 282 445 378 220
Wind_Speed
37 43 53 57 51 50 50 54 58 61 57 47 17 14 15 13 2 12 35 32 51 62 74 75 52 46 54 58 50 51 57 55 57 50 56 62 57 56 51 50 47 47 47 46
49 57 57 50 51 57 58 59 64 62 50 49 20 19 21 21 9 11 25 7 56 69 79 77 43 48 60 60 53 47 53 54 55 55 60 60 59 54 53 47 48 48 48 47
59 53 55 57 56 56 63 63 65 60 52 43 26 26 20 27 22 15 8 6 62 73 63 75 51 48 60 61 52 50 49 53 53 59 49 54 59 56 54 49 51 50 49 48
58 65 60 53 62 57 67 64 67 64 54 54 34 43 37 20 13 12 13 38 81 82 76 71 46 55 65 65 52 44 43 52 54 62 56 58 63 61 59 52 53 50 51 49
53 53 59 63 65 59 66 67 68 60 57 49 46 46 46 13 21 34 44 35 67 86 73 65 47 60 58 61 54 35 32 50 57 59 63 64 63 65 61 58 56 54 53 51
58 57 55 59 68 66 71 67 66 59 55 63 43 45 37 13 36 36 33 44 45 84 78 66 43 50 59 57 48 38 36 54 60 67 69 71 69 67 64 62 61 58 56 53
59 61 57 55 59 56 54 50 56 62 63 64 42 48 50 13 12 30 38 55 60 29 72 63 49 57 65 62 55 45 43 47 57 74 74 75 74 69 66 65 64 61 59 51
59 63 48 46 47 55 49 54 58 63 64 63 54 58 53 24 9 26 44 46 44 40 34 74 61 61 63 68 55 52 50 44 44 66 81 80 78 75 70 66 66 62 60 53
52 57 50 43 53 47 50 56 50 66 56 59 52 56 41 33 49 41 25 37 45 40 43 49 59 62 50 57 65 56 49 48 44 49 79 88 86 82 77 69 68 65 59 53
43 58 44 48 46 39 52 46 58 57 73 76 61 53 51 52 55 49 45 34 49 28 37 28 47 64 43 54 49 43 37 53 46 43 67 92 92 90 87 75 63 65 63 55
41 45 55 43 36 47 49 52 50 48 51 63 66 53 32 37 45 49 42 40 51 31 33 23 34 36 32 30 38 43 41 39 35 40 39 89 97 93 89 88 75 63 66 60
44 45 61 60 54 41 28 36 41 63 63 49 48 46 29 34 37 42 43 46 37 45 48 40 26 31 32 35 34 40 47 54 56 38 54 84 88 98 96 94 91 79 69 18
46 48 60 73 49 41 47 47 49 51 55 64 61 45 36 30 35 39 47 36 25 33 36 48 45 31 45 73 61 42 41 49 46 55 53 69 91 96 98 99 95 92 86 56
41 46 52 63 58 60 69 66 55 52 61 69 61 53 38 37 36 36 38 34 25 34 39 48 51 56 55 59 57 80 57 38 44 43 41 57 43 91 99 102 99 97 95 91
43 53 56 61 65 68 73 77 71 69 65 71 70 64 45 38 37 32 26 29 21 27 39 51 60 72 70 69 68 82 79 56 43 49 52 70 79 54 73 85 97 99 100 98
46 55 59 65 64 70 84 81 81 81 74 73 73 68 51 37 30 33 30 22 25 25 32 38 51 60 64 71 83 85 85 81 57 71 69 55 76 63 55 62 64 77 100 101
44 49 58 68 62 71 93 80 79 82 70 70 82 72 57 50 38 36 29 28 29 32 35 43 48 51 53 59 51 60 75 70 71 94 94 57 44 65 40 57 60 75 91 86
39 41 47 61 59 82 68 64 75 86 69 61 67 66 55 60 49 34 36 37 37 41 46 51 53 56 49 48 47 48 52 56 76 71 85 91 47 45 48 51 65 68 71 74
37 16 38 56 61 72 80 62 67 76 85 63 71 73 63 70 69 57 47 48 53 56 56 59 60 57 58 50 51 51 58 55 60 71 70 71 64 51 40 39 63 71 69 68
42 34 12 14 53 65 54 61 65 69 94 66 73 83 84 80 93 88 75 67 63 65 68 66 66 64 52 50 53 62 67 71 84 79 66 70 69 75 66 45 63 75 78 80
40 37 26 13 9 30 57 71 72 86 91 81 81 89 98 97 92 99 95 95 78 72 74 75 73 67 57 54 53 55 65 73 79 69 69 74 82 83 96 96 88 73 74 73
34 34 36 31 17 33 62 56 58 76 84 84 91 92 104 108 106 104 103 102 102 95 86 78 75 69 65 58 55 56 64 72 73 77 81 81 91 91 94 98 98 91 72 67
31 29 31 21 14 56 59 68 73 70 86 88 94 95 100 109 116 115 117 112 109 107 101 90 88 79 76 59 54 63 66 66 62 58 77 97 95 100 102 98 98 86 80 75
31 30 31 32 22 53 63 58 64 70 77 81 85 94 97 110 112 117 117 119 115 110 109 99 95 93 81 73 63 59 64 60 61 74 76 88 94 96 100 55 48 50 57 56
28 31 32 24 10 22 27 61 65 67 71 74 79 81 87 90 95 101 108 115 114 110 110 103 99 93 92 81 75 63 63 57 63 75 85 85 86 90 90 81 71 47 56 52
23 25 34 40 32 34 18 40 65 67 73 70 72 74 76 76 77 81 90 99 109 109 105 100 99 92 88 85 85 71 71 69 72 79 81 79 82 79 83 85 81 75 83 55
Wind_Direction
253 256 254 258 261 264 265 261 258 253 263 294 290 254 201 165 276 109 141 144 159 169 180 181 172 153 156 153 149 150 153 152 153 145 152 172 151 155 154 151 136 143 137 133
256 255 257 266 261 261 257 256 251 259 277 294 314 207 180 177 212 152 144 206 164 171 182 182 157 160 161 159 156 152 155 154 157 156 164 195 164 175 155 147 154 151 154 142
253 259 259 257 259 260 255 252 250 260 286 309 309 273 242 254 268 258 155 205 227 182 172 182 168 165 165 163 160 158 156 156 158 162 154 214 182 193 172 152 159 165 156 143
257 252 256 260 258 260 258 255 256 264 280 280 288 275 261 249 234 224 150 157 211 207 191 180 165 166 168 170 162 161 159 160 160 166 163 167 178 176 181 158 165 162 159 159
257 260 255 256 255 259 257 256 257 266 275 282 275 275 275 221 197 178 177 171 188 199 184 178 172 171 170 168 167 168 168 165 167 168 171 173 181 187 187 177 169 168 166 163
265 265 266 262 255 256 254 264 262 267 272 265 275 275 277 234 187 183 188 186 175 191 183 178 172 169 171 172 171 174 173 171 172 176 179 180 183 193 193 181 181 177 174 167
265 260 265 267 264 266 263 263 261 259 257 258 274 280 274 203 204 191 186 186 182 178 180 176 172 171 172 173 174 175 175 174 173 182 185 187 190 194 197 183 184 181 179 167
259 256 265 271 266 260 263 257 255 255 258 264 268 264 271 303 218 187 189 182 176 180 188 185 176 174 174 175 175 176 177 179 178 180 192 193 195 198 197 198 191 184 179 174
264 259 270 275 276 266 261 258 265 259 264 267 266 270 293 320 299 273 222 188 186 179 184 186 183 178 178 178 179 179 180 182 183 182 192 205 204 201 200 202 199 194 179 173
277 263 272 276 282 272 264 267 259 261 253 255 260 265 271 301 301 290 255 215 186 219 187 193 184 178 179 179 184 191 206 184 186 188 227 208 213 215 210 200 190 192 190 177
287 276 264 278 273 273 267 269 264 262 261 254 254 260 299 314 320 310 273 246 244 216 198 218 213 201 211 202 187 188 199 212 215 195 230 229 218 223 226 215 199 191 199 189
291 280 265 262 279 284 275 281 278 253 251 258 257 249 305 333 337 333 309 264 247 239 243 242 212 224 234 224 203 197 190 189 190 210 243 236 234 224 225 223 217 204 198 197
293 282 270 262 267 279 269 282 283 270 261 251 250 250 302 324 334 338 330 290 236 227 232 242 239 257 266 256 248 215 202 193 194 241 242 244 233 230 211 224 229 228 215 253
302 285 274 263 264 270 266 271 279 273 256 257 252 257 287 307 318 326 346 349 275 243 250 243 248 263 278 270 258 242 242 220 195 196 226 245 235 235 229 228 233 233 229 220
307 285 283 277 273 272 270 267 269 265 266 257 259 264 273 294 304 315 328 340 328 281 252 246 261 262 274 261 257 245 244 244 200 193 194 197 244 248 248 244 238 238 235 230
313 290 289 282 280 274 267 268 266 264 265 266 266 262 276 286 294 296 305 307 323 306 276 275 277 277 276 264 243 242 241 241 243 195 196 195 200 251 249 251 251 250 240 239
310 302 292 280 289 280 264 263 265 264 268 266 261 264 270 270 282 280 283 296 297 301 289 288 289 290 297 275 277 255 243 249 245 233 213 196 197 198 222 252 252 251 245 248
308 309 304 288 290 270 267 273 271 265 270 273 266 266 268 265 272 266 277 279 285 289 286 288 291 286 297 311 273 260 252 248 246 248 241 233 200 199 199 253 253 253 253 252
329 352 314 289 285 282 272 277 273 266 262 271 267 264 268 269 266 256 274 279 275 276 279 278 285 292 291 301 284 267 260 261 261 247 247 248 250 253 240 209 254 252 253 254
323 331 353 345 297 284 281 284 284 275 257 271 271 267 268 271 260 257 269 275 274 278 278 281 276 280 292 297 301 270 267 270 249 247 248 248 252 251 231 205 254 250 250 251
339 339 352 347 315 323 305 294 285 261 260 276 276 273 268 265 268 267 269 267 272 273 272 275 272 276 284 291 289 285 278 266 254 256 253 251 248 248 232 233 243 251 251 253
11 7 1 352 351 327 316 316 291 279 280 278 277 276 272 270 271 270 268 267 267 272 276 275 272 271 275 284 282 286 284 276 271 265 250 253 246 245 239 234 233 242 252 254
38 40 25 40 8 319 318 307 299 294 285 283 278 277 276 274 271 271 267 267 266 267 269 272 269 267 269 274 286 281 285 280 270 272 248 244 246 244 220 238 217 245 248 252
42 38 35 27 50 337 310 316 298 289 282 286 284 279 279 278 273 270 268 267 265 265 264 264 263 261 267 265 276 281 274 277 271 252 251 249 246 241 238 241 224 242 249 250
46 39 28 31 41 30 26 321 303 297 292 283 286 284 283 287 277 274 270 266 265 264 262 259 259 260 263 263 268 270 273 276 270 260 259 260 256 249 246 249 249 232 208 210
69 53 29 15 29 24 31 4 312 310 305 297 289 280 283 292 288 284 279 274 266 263 260 254 254 257 258 259 260 267 268 268 268 262 264 265 261 259 252 250 252 255 253 223